Skip Page Navigation
NASA JPL Caltech
NASA Logo - Jet Propulsion Laboratory + View the NASA Portal
+ Center for Near-Earth Object Studies
JPL Home Earth Solar System Stars & Galaxies Technology
JPL Solar System Dynamics
BODIES ORBITS EPHEMERIDES TOOLS PHYSICAL DATA DISCOVERY FAQ SITE MAP
JPL Small-Body Database Browser
Search: [ help ]  
17281 Mattblythe (2000 LV28)
Classification: Main-belt Asteroid          SPK-ID: 2017281
Ephemeris | Orbit Diagram | Orbital Elements | Mission Design | Physical Parameters | Discovery Circumstances ]

[ show orbit diagram ]
Orbital Elements at Epoch 2459200.5 (2020-Dec-17.0) TDB
Reference: JPL 35 (heliocentric ecliptic J2000)
 Element Value Uncertainty (1-sigma)   Units 
e .1334667737189214 3.0134e-08  
a 2.734832347165188 1.1032e-08 au
q 2.369823097126905 8.1987e-08 au
i 5.232286843788041 3.7299e-06 deg
node 163.2760498853232 3.9168e-05 deg
peri 121.2294921282687 4.2213e-05 deg
M 207.5162389852657 1.7673e-05 deg
tp 2459900.205976527903
(2022-Nov-16.70597653)
8.2831e-05 TDB
period 1651.940835363477
4.52
9.9955e-06
2.737e-08
d
yr
n .2179254803158789 1.3186e-09 deg/d
Q 3.099841597203471 1.2504e-08 au
  Orbit Determination Parameters
   # obs. used (total)      1797  
   data-arc span      10760 days (29.46 yr)  
   first obs. used      1991-08-07  
   last obs. used      2021-01-21  
   planetary ephem.      DE431  
   SB-pert. ephem.      SB431-N16  
   condition code      0  
   norm. resid. RMS      .49821  
   source      ORB  
   producer      Otto Matic  
   solution date      2021-Feb-24 02:33:22  

Additional Information
 Earth MOID = 1.35682 au 
 Jupiter MOID = 2.06242 au 
 T_jup = 3.334 
[ show covariance matrix ]

Ephemeris | Orbit Diagram | Orbital Elements | Mission Design | Physical Parameters | Discovery Circumstances ]

Physical Parameter Table
Parameter Symbol Value Units Sigma Reference Notes
absolute magnitude H 14.05   n/a E2021B10  

17281 Mattblythe           Discovered 2000 June 6 by the Lowell Observatory Near-Earth Object Search at the Anderson Mesa Station.
Matthew S. Blythe (b. 1960) is a lead site observer at Socorro, New Mexico, for the Lincoln Near-Earth Asteroid Research program.
NOTE: some special characters may not display properly (any characters within {} are an attempt to place the proper accent above a character)
Reference: 20050721/MPCPages.arcLast Updated: 2005-07-21

Alternate Designations
 2000 LV28 = 1991 PD17 = 1999 GD25 
Ephemeris | Orbit Diagram | Orbital Elements | Mission Design | Physical Parameters | Discovery Circumstances ]
ABOUT SSD CREDITS/AWARDS PRIVACY/COPYRIGHT GLOSSARY LINKS
FirstGov 2021-Apr-11 01:27 UT
(server date/time)  
NASA Home Page
Site Manager:   Ryan S. Park
Webmaster  Alan B. Chamberlin